[[{"header":{"parameterUnit":"m.s-1","parameterCategory":1,"la1":30.2991,"la2":30.254,"lo1":-89.0895,"lo2":-89.0444,"dy":0.0017,"dx":0.0017,"nx":28,"ny":28,"refTime":"2024-08-16T03:00:00:Z","depth":0,"parameterNumber":2,"parameterNumberName":"U-component_of_WINDS"},"data":[0,0,0,0,0,0,0,0,0,0,0,0,0,0,0,0,0,0,0,0,0,0,0,0,0,0,0,0,0,0,0,0,0,0,0,0,0,0,0,0,0,0,0,0,0,0,0,0,0,0,0,0,0,0,0,0,0,0,-0.3817,-0.3816,0,-0.3809,-0.3809,-0.3809,-0.3788,-0.3788,-0.3788,-0.3787,-0.378,-0.3781,-0.3781,0,0,0,0,0,0,0,0,0,0,0,0,0,-0.3814,-0.3814,-0.3817,-0.3816,-0.3816,-0.3809,-0.3809,-0.3809,-0.3789,-0.3788,-0.3787,-0.3787,-0.378,-0.3781,-0.3781,0,0,0,0,0,0,0,0,0,0,0,0,0,-0.3811,-0.3814,-0.3817,-0.3805,-0.3804,-0.3809,-0.3809,-0.3809,-0.3789,-0.3788,-0.3787,-0.3787,-0.378,-0.3781,-0.3781,-0.3797,0,0,-0.3782,-0.3782,0,0,0,0,0,0,0,0,-0.3812,-0.3812,-0.3807,-0.3806,-0.3805,-0.3799,-0.3806,-0.3805,-0.3789,-0.3795,-0.3787,-0.3786,-0.3787,-0.3787,-0.3787,-0.3797,-0.3796,-0.3782,-0.3782,-0.3783,-0.3783,0,0,0,0,0,0,0,-0.3812,-0.3812,-0.3814,-0.3807,-0.3806,-0.3801,-0.38,-0.3806,-0.3795,-0.3794,-0.3792,-0.3792,-0.3787,-0.3787,-0.3787,-0.3796,-0.3782,-0.3783,-0.3783,-0.3783,-0.3819,-0.382,0,0,0,0,0,0,-0.3813,-0.3812,-0.3814,-0.3813,-0.3807,-0.3801,-0.38,-0.3802,-0.3795,-0.3793,-0.3792,-0.3791,-0.3787,-0.3786,-0.3787,-0.3805,-0.3783,-0.3783,-0.3783,-0.3818,-0.3819,-0.382,0,0,0,0,0,0,-0.3813,-0.3814,-0.3814,-0.3812,-0.3812,-0.3802,-0.3804,-0.3802,-0.3802,-0.3794,-0.3792,-0.3795,-0.3786,-0.3786,-0.3795,-0.3805,-0.3783,-0.3783,-0.3818,-0.3819,-0.382,-0.3843,0,0,0,0,0,0,-0.3813,-0.3814,-0.382,-0.3813,-0.3812,-0.3822,-0.3804,-0.3802,-0.3803,-0.3801,-0.3795,-0.3794,-0.3786,-0.3794,-0.3795,-0.3805,-0.3784,-0.3817,-0.3818,-0.3819,-0.3841,-0.3845,-0.3848,0,0,0,0,0,-0.3813,-0.3826,-0.382,-0.382,-0.3819,-0.3823,-0.3823,-0.3813,-0.3804,-0.381,-0.3804,-0.3794,-0.3804,-0.3795,-0.3796,-0.3806,-0.3816,-0.3818,-0.3819,-0.384,-0.3844,-0.3848,0,0,0,0,0,0,-0.3835,-0.3825,-0.3818,-0.3829,-0.3827,-0.3819,-0.3826,-0.3818,-0.3818,-0.3816,-0.3804,-0.3803,-0.3814,-0.3811,-0.3802,-0.3822,-0.3808,-0.381,-0.3823,-0.3827,-0.3831,-0.3832,-0.3784,0,0,0,0,0,-0.3841,-0.3844,-0.3836,-0.3846,-0.3846,-0.3836,-0.3838,-0.383,-0.3828,-0.3827,-0.3822,-0.382,-0.3823,-0.3825,-0.3827,-0.3841,-0.384,-0.3848,-0.3851,-0.3854,-0.3856,-0.3864,-0.3868,-0.3826,-0.3826,-0.3826,0,0,-0.3853,-0.3849,-0.3852,-0.3851,-0.3848,-0.3853,-0.3836,-0.3841,-0.3844,-0.3828,-0.3836,-0.3832,-0.3829,-0.3841,-0.3846,-0.3839,-0.3867,-0.3856,-0.3858,-0.3859,-0.3866,-0.387,-0.3874,-0.3827,-0.3827,-0.3826,0,0,-0.3879,-0.3875,-0.3884,-0.3882,-0.3878,-0.3872,-0.3874,-0.3868,-0.3865,-0.3872,-0.386,-0.3864,-0.3869,-0.3868,-0.3868,-0.3893,-0.3884,-0.3894,-0.3911,-0.3919,-0.3922,-0.3925,-0.3935,-0.3939,-0.3896,-0.3896,-0.3896,0,-0.3895,-0.3901,-0.389,-0.3896,-0.3896,-0.3881,-0.389,-0.3889,-0.3886,-0.3887,-0.3879,-0.3885,-0.3882,-0.3893,-0.39,-0.39,-0.3903,-0.3895,-0.3923,-0.3926,-0.3928,-0.3937,-0.3941,-0.3897,-0.3897,-0.3897,-0.3897,0,-0.3921,-0.3926,-0.3933,-0.3931,-0.3932,-0.394,-0.393,-0.3933,-0.3926,-0.392,-0.3929,-0.3925,-0.3926,-0.3928,-0.3921,-0.3939,-0.3934,-0.3925,-0.3911,-0.3934,-0.3942,-0.3946,-0.3899,-0.3898,-0.3898,-0.3898,0,0,-0.3961,-0.3952,-0.3955,-0.3954,-0.3949,-0.3953,-0.396,-0.3961,-0.3964,-0.3962,-0.3969,-0.3973,-0.3964,-0.3964,-0.3957,-0.3964,-0.3985,-0.3953,-0.3953,-0.396,-0.4006,-0.4014,-0.4018,-0.3979,-0.398,-0.398,-0.4007,0,-0.3985,-0.3997,-0.3987,-0.4001,-0.4006,-0.3991,-0.3998,-0.3996,-0.3991,-0.3994,-0.3989,-0.3993,-0.398,-0.398,-0.3986,-0.3981,-0.3995,-0.3979,-0.3986,-0.3986,-0.3988,-0.4023,-0.4031,-0.4056,-0.401,-0.401,-0.4011,0,-0.4016,-0.4016,-0.403,-0.4025,-0.4026,-0.4032,-0.4033,-0.4036,-0.4034,-0.403,-0.403,-0.4021,-0.4028,-0.4014,-0.4024,-0.4014,-0.4016,-0.4014,-0.4015,-0.4016,-0.4,-0.4026,-0.4064,-0.4068,-0.4016,-0.4015,-0.4015,0,-0.4044,-0.4048,-0.4057,-0.4057,-0.405,-0.4055,-0.4053,-0.405,-0.4051,-0.4052,-0.4053,-0.4054,-0.4055,-0.4056,-0.4048,-0.4038,-0.406,-0.4045,-0.4058,-0.4058,-0.4063,-0.4063,-0.4104,-0.4063,-0.4063,-0.4063,-0.4063,0,-0.4074,-0.4083,-0.407,-0.4076,-0.4087,-0.4075,-0.4086,-0.4082,-0.4079,-0.4085,-0.4072,-0.4077,-0.4065,-0.407,-0.4063,-0.4073,-0.4073,-0.4071,-0.4069,-0.4073,-0.4073,-0.4075,-0.4073,-0.4064,-0.4064,-0.4064,-0.4063,0,-0.4108,-0.4099,-0.4109,-0.4102,-0.41,-0.4108,-0.4103,-0.4108,-0.4102,-0.4109,-0.411,-0.4102,-0.4106,-0.4097,-0.41,-0.4096,-0.4111,-0.4106,-0.4112,-0.4111,-0.4124,-0.4123,-0.4168,-0.4173,-0.4128,-0.4129,-0.4129,0,-0.4128,-0.4135,-0.4129,-0.4131,-0.413,-0.4134,-0.4135,-0.4124,-0.4126,-0.4124,-0.413,-0.4133,-0.4135,-0.4143,-0.4137,-0.414,-0.4135,-0.4151,-0.4136,-0.4139,-0.4137,-0.4137,-0.4138,-0.4154,-0.4155,-0.4155,-0.4155,0,-0.4164,-0.416,-0.4162,-0.4163,-0.4165,-0.4166,-0.4165,-0.4168,-0.4156,-0.416,-0.4164,-0.4165,-0.4169,-0.4172,-0.4173,-0.4171,-0.4162,-0.416,-0.4163,-0.4167,-0.4171,-0.417,-0.4121,-0.4159,-0.4159,-0.4159,-0.4158,-0.4158,-0.4193,-0.4199,-0.4195,-0.4199,-0.4197,-0.4197,-0.4202,-0.4197,-0.42,-0.4202,-0.4195,-0.4201,-0.4199,-0.4199,-0.4198,-0.4203,-0.4196,-0.4201,-0.4202,-0.4204,-0.4206,-0.4169,-0.4203,-0.4203,-0.4203,-0.4203,-0.4203,0,-0.423,-0.4227,-0.423,-0.423,-0.4232,-0.4222,-0.4221,-0.4225,-0.423,-0.4228,-0.4231,-0.4236,-0.4239,-0.4234,-0.4236,-0.4241,-0.4237,-0.4243,-0.4243,-0.4243,-0.4212,-0.4209,-0.4246,-0.4246,-0.4246,-0.4246,-0.4246,-0.4246,-0.4249,-0.4259,-0.4254,-0.4263,-0.426,-0.4266,-0.4266,-0.4266,-0.4265,-0.4271,-0.4274,-0.427,-0.4267,-0.427,-0.4273,-0.4271,-0.4273,-0.428,-0.4277,-0.4249,-0.4245,-0.4241,-0.4238,-0.4281,-0.4281,-0.4308,-0.4308,-0.4308]},{"header":{"parameterUnit":"m.s-1","parameterCategory":1,"la1":30.2991,"la2":30.254,"lo1":-89.0895,"lo2":-89.0444,"dy":0.0017,"dx":0.0017,"nx":28,"ny":28,"refTime":"2024-08-16T03:00:00:Z","depth":0,"parameterNumber":3,"parameterNumberName":"V-component_of_WINDS"},"data":[0,0,0,0,0,0,0,0,0,0,0,0,0,0,0,0,0,0,0,0,0,0,0,0,0,0,0,0,0,0,0,0,0,0,0,0,0,0,0,0,0,0,0,0,0,0,0,0,0,0,0,0,0,0,0,0,0,0,3.8882,3.8883,0,3.8893,3.8893,3.8893,3.8844,3.8842,3.8841,3.884,3.8849,3.8851,3.8852,0,0,0,0,0,0,0,0,0,0,0,0,0,3.8817,3.8819,3.8882,3.8883,3.8883,3.8893,3.8893,3.8893,3.8844,3.8842,3.8841,3.8839,3.8849,3.885,3.8852,0,0,0,0,0,0,0,0,0,0,0,0,0,3.8839,3.8819,3.8882,3.8859,3.8858,3.8893,3.8893,3.8893,3.8845,3.8842,3.884,3.8838,3.8848,3.885,3.8853,3.891,0,0,3.886,3.8861,0,0,0,0,0,0,0,0,3.8837,3.8841,3.8863,3.8861,3.8859,3.8865,3.8874,3.8899,3.8845,3.8849,3.884,3.8837,3.8856,3.8858,3.8864,3.8911,3.8911,3.886,3.8861,3.8863,3.8863,0,0,0,0,0,0,0,3.8836,3.884,3.8887,3.8863,3.8861,3.8848,3.8849,3.8878,3.8865,3.8849,3.8845,3.8847,3.8855,3.8862,3.8864,3.8911,3.886,3.8862,3.8864,3.8864,3.9003,3.9006,0,0,0,0,0,0,3.8838,3.8839,3.8886,3.8887,3.8843,3.8851,3.8852,3.8865,3.8864,3.8862,3.8849,3.8845,3.8859,3.8861,3.8864,3.893,3.8862,3.8865,3.8866,3.9001,3.9004,3.9006,0,0,0,0,0,0,3.8837,3.8843,3.8886,3.8862,3.8867,3.8854,3.887,3.8867,3.8874,3.8864,3.8861,3.8859,3.8857,3.8861,3.8899,3.893,3.8866,3.8868,3.8998,3.9002,3.9005,3.9063,0,0,0,0,0,0,3.8835,3.8842,3.8865,3.8863,3.8868,3.8921,3.8872,3.8868,3.8878,3.8873,3.8873,3.8871,3.8856,3.8896,3.8901,3.8932,3.887,3.8996,3.9,3.9004,3.9058,3.9068,3.9076,0,0,0,0,0,3.8833,3.8881,3.8866,3.8872,3.8896,3.8923,3.8926,3.8908,3.8881,3.8903,3.8896,3.8871,3.8926,3.89,3.8906,3.8937,3.8994,3.8999,3.9004,3.9054,3.9066,3.9076,0,0,0,0,0,0,3.8886,3.888,3.8864,3.8913,3.8919,3.8914,3.8941,3.8921,3.8934,3.8929,3.8905,3.8906,3.8947,3.8946,3.8918,3.8992,3.8955,3.8961,3.8991,3.9002,3.9011,3.9009,3.8872,0,0,0,0,0,3.8903,3.8926,3.892,3.8963,3.8967,3.8954,3.8965,3.8951,3.8956,3.8958,3.8954,3.896,3.8978,3.899,3.9007,3.9058,3.9057,3.9083,3.9092,3.9099,3.9105,3.913,3.9141,3.9023,3.9023,3.9023,0,0,3.8939,3.8939,3.8955,3.8974,3.8977,3.9,3.8956,3.8983,3.9,3.8962,3.8997,3.8995,3.8999,3.9044,3.9063,3.9044,3.9137,3.9106,3.9112,3.9113,3.9137,3.9148,3.9158,3.9027,3.9026,3.9025,0,0,3.9016,3.9019,3.9055,3.9059,3.9064,3.9055,3.9063,3.9062,3.9059,3.9094,3.9066,3.9085,3.9118,3.9121,3.9128,3.9206,3.9182,3.9212,3.9258,3.9283,3.9293,3.9301,3.9327,3.9337,3.9218,3.9218,3.9218,0,3.906,3.9094,3.9076,3.9104,3.9112,3.908,3.9115,3.912,3.913,3.9136,3.9115,3.9154,3.9155,3.9199,3.9218,3.9225,3.9233,3.9211,3.9293,3.9301,3.9308,3.9333,3.9343,3.9221,3.9221,3.9221,3.922,0,3.9147,3.9171,3.9199,3.921,3.9222,3.9254,3.9239,3.9253,3.9238,3.9231,3.9266,3.9266,3.9281,3.9291,3.9277,3.9333,3.9321,3.9297,3.9259,3.9323,3.9346,3.9355,3.9226,3.9225,3.9224,3.9223,0,0,3.9256,3.9256,3.9266,3.927,3.9273,3.9291,3.9322,3.9336,3.9348,3.9357,3.938,3.9408,3.9386,3.9393,3.9379,3.9401,3.9461,3.9374,3.9374,3.9388,3.9521,3.9537,3.9548,3.9446,3.9448,3.9449,3.9519,0,3.933,3.9381,3.9365,3.9416,3.9437,3.9407,3.9433,3.9437,3.9431,3.9448,3.9441,3.9461,3.9431,3.9435,3.9456,3.9449,3.9486,3.9444,3.9466,3.9467,3.9464,3.956,3.9578,3.9644,3.9528,3.953,3.9531,0,3.9423,3.9434,3.9488,3.9486,3.9494,3.9518,3.953,3.9547,3.9551,3.9545,3.9553,3.9534,3.9562,3.9525,3.9563,3.9534,3.9543,3.9541,3.9543,3.9543,3.9501,3.9561,3.9665,3.9675,3.9545,3.9544,3.9543,0,3.9494,3.9524,3.9559,3.9564,3.9563,3.958,3.9581,3.9583,3.9592,3.9603,3.9608,3.9622,3.9629,3.964,3.9625,3.96,3.9664,3.9627,3.9659,3.9659,3.9672,3.9671,3.9778,3.9681,3.9681,3.9681,3.9681,0,3.9577,3.9611,3.9591,3.9613,3.9649,3.963,3.9666,3.9663,3.9665,3.9684,3.966,3.9678,3.9658,3.9675,3.9664,3.9696,3.97,3.9695,3.9691,3.9696,3.9696,3.9699,3.9693,3.9684,3.9683,3.9683,3.9682,0,3.9663,3.9651,3.9687,3.9684,3.9684,3.9711,3.9707,3.9727,3.9719,3.9744,3.9749,3.9738,3.9756,3.9743,3.9761,3.9753,3.9795,3.9786,3.9793,3.979,3.9822,3.9819,3.9933,3.9946,3.9843,3.9844,3.9845,0,3.9715,3.974,3.9739,3.9751,3.9753,3.9772,3.9782,3.9764,3.9775,3.9781,3.9799,3.9816,3.9828,3.9859,3.9851,3.9865,3.9855,3.9894,3.9856,3.986,3.9853,3.9851,3.9852,3.9901,3.9902,3.9903,3.9904,0,3.9809,3.9802,3.9817,3.983,3.9842,3.9851,3.9859,3.987,3.9852,3.9865,3.9884,3.9893,3.9912,3.9928,3.9939,3.9939,3.9918,3.9916,3.9924,3.9928,3.993,3.9927,3.9812,3.9913,3.9912,3.9911,3.9911,3.991,3.9878,3.9898,3.99,3.9917,3.9921,3.9928,3.9946,3.9941,3.9956,3.997,3.9959,3.9981,3.9983,3.9996,3.9998,4.0015,3.9998,4.001,4.0013,4.0016,4.0019,3.993,4.0017,4.0017,4.0016,4.0016,4.0016,0,3.9968,3.9968,3.9985,3.9995,4.0009,3.9989,3.9996,4.0008,4.0028,4.0032,4.0044,4.0065,4.0081,4.0075,4.0088,4.0102,4.0093,4.0106,4.0104,4.0104,4.0034,4.0025,4.0114,4.0114,4.0114,4.0113,4.0113,4.0113,4.0017,4.0049,4.0042,4.0076,4.0075,4.0097,4.0102,4.0108,4.0111,4.0136,4.0148,4.0145,4.0145,4.0158,4.0171,4.0169,4.0174,4.019,4.0185,4.0119,4.0109,4.01,4.0091,4.0192,4.0192,4.0253,4.0253,4.0254]}]]